Powrót do katalogu

AUREOLE 1

AktywnyNaukaLEO
NORAD 5729·PAYLOAD·🇫🇷 France

Wystrzelony Dec 27, 1971 z Plesetsk Cosmodrome

Loading…

Następne Przeloty (najbliższe 24 godziny)

TLE

ŚwieżeSource: Space-Track

Epoka: Sep 14, 2026, 14:13 UTC

1 05729U 71119A   26257.59289035  .00002641  00000-0  17899-3 0  9995
2 05729  73.9466 290.7631 0701020 113.9649 253.6493 14.00482094654224

Śledź AUREOLE 1 w czasie rzeczywistym z AllMySat

Download on the App Store